EW9824 Weather Reports


time (UTC)temp
C
wind
direction
speed
KPH
gust
KPH
rain 1hr
cm
rain 24hr
cm
rain mn
cm
humidity
%
barometer
mb
20260508071532 6 151 3.2 11.3 0.00 0.00 0.00 66 1019.1
20260508070029 6 189 1.6 6.4 0.00 0.00 0.00 65 1019.2
20260508064530 7 146 1.6 6.4 0.00 0.00 0.00 62 1019.3
20260508063032 8 194 3.2 9.7 0.00 0.00 0.00 59 1019.3
20260508061530 9 179 3.2 8.0 0.00 0.00 0.00 53 1019.5
20260508060105 10 178 3.2 6.4 0.00 0.00 0.00 49 1019.6
20260508053030 13 353 8.0 12.9 0.00 0.00 0.00 42 1019.6
20260508051606 13 357 6.4 12.9 0.00 0.00 0.00 39 1019.6
20260508050031 13 348 6.4 14.5 0.00 0.00 0.00 38 1019.6
20260508044532 13 8 11.3 17.7 0.00 0.00 0.00 37 1019.6
20260508041530 13 1 11.3 17.7 0.00 0.00 0.00 36 1019.3
20260508040030 14 352 9.7 16.1 0.00 0.00 0.00 36 1019.0
20260508033031 15 359 11.3 20.9 0.00 0.00 0.00 35 1018.8
20260508031532 15 359 9.7 19.3 0.00 0.00 0.00 35 1018.8
20260508030031 16 349 11.3 20.9 0.00 0.00 0.00 34 1018.7
20260508024604 17 344 11.3 29.0 0.00 0.00 0.00 33 1018.7
20260508023030 17 343 11.3 17.7 0.00 0.00 0.00 33 1018.5
20260508021528 18 334 11.3 19.3 0.00 0.00 0.00 33 1018.4
20260508020030 18 332 11.3 22.5 0.00 0.00 0.00 34 1018.4
20260508014529 19 321 8.0 20.9 0.00 0.00 0.00 32 1018.4
20260508013032 20 314 8.0 17.7 0.00 0.00 0.00 32 1018.5
20260508011530 20 334 9.7 20.9 0.00 0.00 0.00 30 1018.6
20260508004529 21 308 8.0 20.9 0.00 0.00 0.00 28 1018.6
20260508003031 21 301 12.9 27.4 0.00 0.00 0.00 27 1018.5
20260508000044 22 310 11.3 22.5 0.00 0.00 0.00 26 1018.4
20260507234530 22 300 9.7 20.9 0.00 0.00 0.00 25 1018.4
20260507233105 22 305 12.9 22.5 0.00 0.00 0.00 26 1018.5
20260507231532 22 318 12.9 24.1 0.00 0.00 0.00 25 1018.7
20260507230031 22 306 12.9 22.5 0.00 0.00 0.00 25 1018.7
20260507224530 22 303 9.7 22.5 0.00 0.00 0.00 25 1018.8
20260507223105 21 299 11.3 24.1 0.00 0.00 0.00 27 1019.0
20260507220032 21 321 11.3 24.1 0.00 0.00 0.00 29 1019.3
20260507214646 21 313 12.9 25.7 0.00 0.00 0.00 29 1019.4
20260507213030 21 311 12.9 27.4 0.00 0.00 0.00 29 1019.5
20260507211541 21 313 9.7 25.7 0.00 0.00 0.00 30 1019.6
20260507210104 21 310 11.3 24.1 0.00 0.00 0.00 31 1019.7
20260507204533 21 308 11.3 24.1 0.00 0.00 0.00 33 1019.8
20260507203106 20 308 9.7 20.9 0.00 0.00 0.00 33 1020.0
20260507201531 21 316 12.9 25.7 0.00 0.00 0.00 32 1020.0
20260507200031 21 307 9.7 22.5 0.00 0.00 0.00 33 1020.1
20260507194530 20 312 11.3 27.4 0.00 0.00 0.00 33 1020.2
20260507193104 20 321 11.3 22.5 0.00 0.00 0.00 33 1020.3
20260507190035 19 318 9.7 17.7 0.00 0.00 0.00 34 1020.5
20260507184527 19 346 6.4 17.7 0.00 0.00 0.00 37 1020.6
20260507183102 18 343 6.4 16.1 0.00 0.00 0.00 39 1020.8
20260507181531 18 343 8.0 20.9 0.00 0.00 0.00 40 1020.9
20260507180029 17 318 8.0 17.7 0.00 0.00 0.00 42 1021.0
20260507173107 16 312 9.7 22.5 0.00 0.00 0.00 50 1021.2
20260507171534 16 325 11.3 22.5 0.00 0.00 0.00 53 1021.3
20260507170033 15 331 8.0 16.1 0.00 0.00 0.00 55 1021.3
20260507164531 14 343 9.7 20.9 0.00 0.00 0.00 57 1021.3
20260507163032 14 347 11.3 20.9 0.00 0.00 0.00 58 1021.4
20260507161533 14 358 11.3 22.5 0.00 0.00 0.00 59 1021.3
20260507160034 13 357 9.7 19.3 0.00 0.00 0.00 60 1021.4
20260507154529 13 5 9.7 20.9 0.00 0.00 0.00 62 1021.5
20260507151531 12 334 8.0 14.5 0.00 0.00 0.00 66 1021.6
20260507150035 12 330 9.7 20.9 0.00 0.00 0.00 69 1021.5
20260507144532 12 340 8.0 16.1 0.00 0.00 0.00 70 1021.6
20260507143106 11 21 8.0 16.1 0.00 0.00 0.00 75 1021.5
20260507140030 9 5 4.8 12.9 0.00 0.00 0.00 80 1021.1
20260507134533 9 17 4.8 6.4 0.00 0.00 0.00 79 1021.1
20260507133029 10 6 3.2 8.0 0.00 0.00 0.00 79 1021.2
20260507130029 10 89 3.2 9.7 0.00 0.00 0.00 79 1021.2
20260507123030 10 334 4.8 14.5 0.00 0.00 0.00 78 1021.2
20260507121607 10 358 4.8 12.9 0.00 0.00 0.00 79 1021.1
20260507120030 10 97 4.8 11.3 0.00 0.00 0.00 79 1021.1
20260507113033 10 60 4.8 11.3 0.00 0.00 0.00 77 1021.1
20260507111530 11 119 3.2 11.3 0.00 0.00 0.00 74 1021.1
20260507110108 11 245 3.2 9.7 0.00 0.00 0.00 73 1021.1
20260507104533 12 265 4.8 19.3 0.00 0.00 0.00 73 1021.2
20260507103032 12 267 4.8 20.9 0.00 0.00 0.00 71 1021.2
20260507100036 12 292 8.0 24.1 0.00 0.00 0.00 69 1021.1
20260507094526 12 288 6.4 22.5 0.00 0.00 0.00 68 1021.2
20260507093033 12 277 6.4 16.1 0.00 0.00 0.00 67 1021.3
20260507091606 13 251 9.7 25.7 0.00 0.00 0.00 67 1021.3
20260507090033 12 245 9.7 24.1 0.00 0.00 0.00 69 1021.4
20260507084530 12 253 8.0 19.3 0.00 0.00 0.00 70 1021.7
20260507083034 13 269 9.7 24.1 0.00 0.00 0.00 70 1021.8
20260507081531 13 270 11.3 24.1 0.00 0.00 0.00 70 1021.9
20260507080031 13 267 12.9 24.1 0.00 0.00 0.00 70 1021.9
20260507074606 13 271 11.3 25.7 0.00 0.00 0.00 70 1021.9
20260507073106 13 271 9.7 20.9 0.00 0.00 0.00 69 1021.9